Powrót do katalogu

STARLINK-11384

AktywnyŁącznośćVLEO
NORAD 62088·PAYLOAD·🇺🇸 United States

Wystrzelony Nov 25, 2024 z Cape Canaveral Space Force Station

Loading…

Następne Przeloty (najbliższe 24 godziny)

TLE

ŚwieżeSource: CelesTrak SupGP

Epoka: Sep 14, 2026, 20:52 UTC

1 62088C 24220A   26257.86993056 -.00010389  00000+0 -80647-4 0  2570
2 62088  43.0005 343.1313 0001641 274.2816  31.7840 15.70855990    11

Śledź STARLINK-11384 w czasie rzeczywistym z AllMySat

Download on the App Store